Simultaneous Nadir Overpasses (SNOs) Predictions

Prediction of SNOs between LANDSAT-8 and METOP-A Satellite Orbit:

Table of predicted SNOs for the next 14.0 days since TLE Epoch: 6/13/2020
Index Date (LANDSAT-8) Time (LANDSAT-8) Lat,Lon (LANDSAT-8) SZA (LANDSAT-8 ) Date (METOP-A) Time (METOP-A) Lat,Lon (METOP-A) SZA (METOP-A ) Distance(km) Time Diff (sec)
1 06/13/2020 13:41:34 81.47, 20.99 60.99 06/13/2020 13:41:15 81.48, 20.88 60.97 2.12 19
2 06/13/2020 14:31:01 -81.46,-171.46 119.03 06/13/2020 14:31:55 -81.47,-171.51 119.01 1.23 54
3 06/16/2020 09:15:51 81.46, 87.36 60.85 06/16/2020 09:15:36 81.47, 87.56 60.87 3.34 15
4 06/16/2020 10:05:17 -81.48,-104.68 119.11 06/16/2020 10:06:16 -81.47,-104.82 119.11 2.69 59
5 06/19/2020 04:50:06 81.48, 154.09 60.81 06/19/2020 04:49:56 81.47, 154.22 60.82 2.52 10
6 06/19/2020 05:39:34 -81.46, -38.71 119.25 06/19/2020 05:40:37 -81.47, -38.53 119.20 3.09 63
7 06/22/2020 00:24:23 81.47,-139.60 60.77 06/22/2020 00:24:18 81.47,-139.52 60.78 1.48 5
8 06/22/2020 01:13:50 -81.47, 28.01 119.24 06/22/2020 01:14:58 -81.46, 28.14 119.20 2.29 68
9 06/24/2020 19:09:14 -81.46, 118.98 119.23 06/24/2020 19:08:00 -81.47, 119.12 119.24 2.56 74
10 06/24/2020 19:58:40 81.46, -73.33 60.78 06/24/2020 19:58:40 81.47, -73.27 60.79 1.11 0




NCC Satellite Simultaneous Nadir Overpasses (SNOs) Prediction Service
